Other Public Products
Issued by NWS Charleston, SC

Current Version | Previous Version | Text Only | Print | Product List | Glossary Off
Versions: 1 2 3 4 5 6 7 8 9 10 11 12 13 14 15 16 17 18 19 20 21 22 23 24 25 26 27 28 29 30 31 32 33 34 35 36 37 38 39 40 41 42 43 44 45 46 47 48 49 50
000 FPUS82 KCHS 192138 OPUCHS TEST...KCHS/KSAV Gateway Observations...TEST National Weather Service Charleston SC 500 PM EDT TUE SEP 19 2017 NOTE: "fair" indicates few or no clouds below 12,000 feet with no significant weather and/or obstructions to visibility. SCZ050-WAZ558-NCZ071-TXZ119-213-PAZ071-DCZ001-FLZ074-172-MI076- NYZ176-178-MAZ016-IL014-TNZ027-NJZ106-GAZ044-MD014-192200- ...Gateway Observations for Charleston International... CITY SKY/WX TMP DP RH WIND PRES REMARKS Chas Airport MOSUNNY 87 66 49 NW6 29.92F Seattle PTSUNNY 57 51 80 SW10 29.75F Charlotte PTSUNNY 85 66 53 W6 29.96F Dallas DFW PTSUNNY 97 69 40 S17 29.78F HX 103 Dallas Love PTSUNNY 96 69 41 S13G21 29.80F HX 102 Philladelphia CLOUDY 78 63 59 N14G26 29.88S Wash National PTSUNNY 83 67 58 NW16 29.90F Baltimore PTSUNNY 82 67 60 N10G20 29.88F Miami PTSUNNY 88 75 65 SE10 29.89S HX 97 Detroit LGT RAIN 70 68 93 SE5 29.96F FOG Newark LGT RAIN 72 67 84 N16 29.89F Laguardia LGT RAIN 73 67 81 N16G22 29.89F J F K CLOUDY 72 66 81 N18G28 29.89R Boston Logan FOG 64 63 96 N15 30.02F VSB 1/2 Ft. Lauderdale PTSUNNY 90 77 65 NE12 29.89S HX 103 Chicago O`Hare PTSUNNY 77 62 59 E8 29.92F Chicago Midway MOSUNNY 77 64 64 E10 29.92F Houston Bush CLOUDY 90 75 61 SW6 29.87F HX 100 Houston Hobby PTSUNNY 93 74 53 S14 29.87F HX 103 Nashville TSTM 69 66 90 CALM 29.95F Atlanta MOSUNNY 88 61 40 NW7 29.96F $$ GAZ044-118-TXZ119-213-NCZ071-DCZ001-MDZ014-506-PAZ021-071-NJZ106- NYZ176-178-MAZ106-OHZ011-021-055-MIZ076-KYZ091-ILZ014-INZ047- MNZ060-ONZ431-192200- ...Gateway Observations for Savannah International... CITY SKY/WX TMP DP RH WIND PRES REMARKS Savannah Arpt PTSUNNY 88 66 48 NW5 29.93S HX 90 Atlanta MOSUNNY 88 61 40 NW7 29.96F Charlotte PTSUNNY 85 66 53 W6 29.96F Dallas DFW PTSUNNY 97 69 40 S17 29.78F HX 103 Houston Bush CLOUDY 90 75 61 SW6 29.87F HX 100 Wash National PTSUNNY 83 67 58 NW16 29.90F Wash Dulles MOSUNNY 82 65 56 N8 29.92F Baltimore PTSUNNY 82 67 60 N10G20 29.88F Philadelphia CLOUDY 78 63 59 N14G26 29.88S Newark LGT RAIN 72 67 84 N16 29.89F Laguardia LGT RAIN 73 67 81 N16G22 29.89F J F K CLOUDY 72 66 81 N18G28 29.89R Boston FOG 64 63 96 N15 30.02F VSB 1/2 Pittsburg MOSUNNY 83 60 45 VRB3 29.96F Akron CLOUDY 82 62 50 SW6 29.96F Cleveland LGT RAIN 78 67 68 N8 29.96F Cincinnati PTSUNNY 77 68 73 CALM 29.94F Columbus PTSUNNY 75 66 74 W5 29.95S Detroit LGT RAIN 70 68 93 SE5 29.96F FOG Chicago O`Hare PTSUNNY 77 62 59 E8 29.92F Minneapolis CLOUDY 79 63 57 SE16G26 29.77F Indianapolis PTSUNNY 83 65 54 W13 29.90F Toronto Canada PTSUNNY 79 64 61 SE9 29.97F $$

USA.gov is the U.S. government's official web portal to all federal, state and local government web resources and services.